Regional Weather Roundup
Issued by NWS

Home | Current Version | Previous Version | Graphics & Text | Print | Product List | Glossary On
Versions: 1 2 3 4 5 6 7 8 9 10 11 12 13 14 15 16 17 18 19 20 21 22 23 24 25 26 27 28 29 30 31 32 33 34 35 36 37 38 39 40 41 42 43 44 45 46 47 48 49 50
798
ASUS43 KIND 080009
RWRIN

WEATHER ROUNDUP FOR INDIANA
NATIONAL WEATHER SERVICE INDIANAPOLIS IN
700 PM EST SUN FEB 07 2016

NOTE: "FAIR" INDICATES FEW OR NO CLOUDS BELOW 12,000 FEET WITH NO
SIGNIFICANT WEATHER AND/OR OBSTRUCTIONS TO VISIBILITY.

* - STATION DOES NOT REPORT WEATHER SUCH AS PRECIPITATION OR FOG.

+ - STATION NOT QUALITY CONTROLLED BY THE NATIONAL WEATHER SERVICE.
    USE DATA WITH CAUTION...ESPECIALLY DEWPOINT AND RELATIVE
    HUMIDITY OBSERVATIONS.

INZ001>003-010>013-019-020-080100-
NORTHWEST INDIANA

CITY           SKY/WX    TMP DP  RH WIND       PRES   REMARKS
GARY /AIRPORT/ MOCLDY    43  30  61 SW14      29.77S
LA PORTE +     PTCLDY    42  34  74 SW12      29.76S
6HR MIN TEMP:  41; 6HR MAX TEMP:  48;

MICHIGAN CITY+ MOCLDY    41  32  70 SW12G18   29.77R
MONTICELLO +   CLEAR     40  30  66 W8        29.80S
6HR MIN TEMP:  40; 6HR MAX TEMP:  49;

RENSSELAER +   PTCLDY    41  32  70 W9        29.80S
VALPARAISO     CLOUDY    41  32  70 SW15      29.78R
6HR MIN TEMP:  41; 6HR MAX TEMP:  48;


$$

LMZ046-743>745-080100-
SOUTHERN LAKE MICHIGAN

STATION/POSITION TIME  TEMP    WIND        PRES    WAVE
                       AIR SEA DIR/SP/G            HT
                 (UTC) (F)     (DEG/KT/KT) (MB)    (FT)
BURNS HARBOR     2320   43     240/ 15/ 21 1008.5R
MICHIGAN CITY    2300   43     200/ 15/ 17   N/A

$$

INZ004-005-014>016-021>024-080100-
NORTH CENTRAL INDIANA

CITY           SKY/WX    TMP DP  RH WIND       PRES   REMARKS
GOSHEN         CLOUDY    40  32  73 SW10      29.76S
6HR MIN TEMP:  40; 6HR MAX TEMP:  48;

LOGANSPORT +   PTCLDY    41  30  65 W13       29.81S
PERU/GRISSOM   CLOUDY    41  33  73 W9        29.78R
6HR MIN TEMP:  41; 6HR MAX TEMP:  51;

ROCHESTER +    CLOUDY    43  30  61 SW8       29.79S
SOUTH BEND     CLEAR     40  32  73 SW10      29.76S
6HR MIN TEMP:  40; 6HR MAX TEMP:  46;

WARSAW +       CLOUDY    41  32  70 W9        29.77S

$$

INZ006>009-017-018-025>027-080100-
NORTHEAST INDIANA

CITY           SKY/WX    TMP DP  RH WIND       PRES   REMARKS
ANGOLA *+      CLEAR     43  30  61 SW6       29.76S
AUBURN +       CLOUDY    45  30  57 SW6       29.78S
FORT WAYNE     CLOUDY    41  31  67 SW7       29.79S
6HR MIN TEMP:  41; 6HR MAX TEMP:  49;

HUNTINGTON +   CLOUDY    45  28  50 W9        29.79R
6HR MIN TEMP:  45; 6HR MAX TEMP:  51;


$$

INZ028-029-035-036-043>045-051>053-080100-
WEST CENTRAL INDIANA

CITY           SKY/WX    TMP DP  RH WIND       PRES   REMARKS
GREENCASTLE +  PTCLDY    46  23  39 W5        29.83S
LAFAYETTE      PTCLDY    42  32  67 W12       29.81S
6HR MIN TEMP:  42; 6HR MAX TEMP:  51;

TERRE HAUTE    PTCLDY    48  31  51 W14       29.84R
6HR MIN TEMP:  47; 6HR MAX TEMP:  54; 6HR PCP: TRACE;


$$

INZ030>032-037>040-046>048-054>057-064-065-080100-
CENTRAL INDIANA

CITY           SKY/WX    TMP DP  RH WIND       PRES   REMARKS
COLUMBUS       CLEAR     48  28  46 S9        29.84F
FRANKFORT +    PTCLDY    41  27  56 W12       29.83R
6HR MIN TEMP:  41; 6HR MAX TEMP:  53;

GREENWOOD *+   CLOUDY    48  32  53 SW6       29.83S
INDIANAPOLIS   CLOUDY    48  27  44 SW13      29.81S
6HR MIN TEMP:  48; 6HR MAX TEMP:  55;

-EAGLE CREEK   CLOUDY    48  29  47 VRB3      29.81S
6HR MIN TEMP:  48; 6HR MAX TEMP:  53;

KOKOMO *+        N/A     45  30  57 W15       29.80S
6HR MIN TEMP:  45; 6HR MAX TEMP:  52;

MARION +       CLOUDY    44  24  46 SW9       29.81R
MT COMFORT *+  CLOUDY    46  30  53 SW10      29.82S
SHELBYVILLE    CLOUDY    48  30  49 SW10      29.82F
6HR MIN TEMP:  48; 6HR MAX TEMP:  54;

ZIONSVILLE +   CLOUDY    45  31  57 W8        29.81S
6HR MIN TEMP:  45; 6HR MAX TEMP:  51;


$$

INZ033-034-041-042-049-050-058-059-080100-
EAST CENTRAL INDIANA

CITY           SKY/WX    TMP DP  RH WIND       PRES   REMARKS
MUNCIE         CLOUDY    49  28  44 SW10      29.80S
6HR MIN TEMP:  49; 6HR MAX TEMP:  53;


$$

INZ060-061-067>069-081>083-085>088-080100-
SOUTHWEST INDIANA

CITY           SKY/WX    TMP DP  RH WIND       PRES   REMARKS
EVANSVILLE     MOCLDY    51  27  39 SW12      29.88F
6HR MIN TEMP:  51; 6HR MAX TEMP:  58;

HUNTINGBURG *+ MOCLDY    48  27  43 S9        29.88F
6HR MIN TEMP:  48; 6HR MAX TEMP:  55;

WASHINGTON +   PTCLDY    48  28  46 SW9       29.85S
6HR MIN TEMP:  48; 6HR MAX TEMP:  54;


$$

INZ062-063-066-070>080-084-089>092-080100-
SOUTH CENTRAL AND SOUTHEAST INDIANA

CITY           SKY/WX    TMP DP  RH WIND       PRES   REMARKS
BLOOMINGTON    MOCLDY    48  27  44 SW9       29.83F
6HR MIN TEMP:  48; 6HR MAX TEMP:  54;

MADISON *+     PTCLDY    45  23  42 S6        29.89S
SEYMOUR +      CLEAR     46  30  53 S8        29.86S

$$





USA.gov is the U.S. government's official web portal to all federal, state and local government web resources and services.